RH
50 61 73 77 82 85 90 90 97 100 98 100 96 99 93 78 81 90 91 93 92 82 80 83 82 79 78 76 70 74 80 76 74 76 82 91 91 89 85 77 79 85 86 89 95 95 92 88 82 81 77 73 70 66 66 63 62 63 67 73 72 67 62 66 75 79 80 80 81 85 86 85 84 82 84 88 88 85 88 87 87 91 87 85 85 88 93 94 96 96 94 94 95 92 89 91 93
52 67 78 85 85 90 96 89 97 101 99 101 96 98 93 83 88 91 90 92 83 72 78 80 74 77 76 66 59 67 82 84 80 84 92 95 94 93 83 75 79 83 87 90 95 94 90 88 85 85 82 80 77 70 68 67 68 72 75 75 68 62 61 70 80 82 82 81 81 85 85 84 86 83 82 86 88 89 90 89 89 91 90 87 86 86 92 94 94 94 93 95 96 94 92 93 95
65 77 83 89 89 92 95 90 99 101 99 100 97 96 88 90 95 88 87 84 69 63 75 74 71 81 76 66 65 74 86 85 83 90 94 92 95 97 84 74 76 81 85 89 92 92 89 88 88 87 86 87 85 81 75 74 75 75 75 72 68 66 68 75 82 83 84 84 83 83 82 84 85 81 80 86 89 90 90 89 89 88 88 86 86 84 86 91 93 94 94 96 96 94 92 92 94
71 77 80 87 93 94 96 98 100 98 100 98 95 94 88 91 92 87 86 76 64 63 70 71 76 83 78 73 70 78 86 82 82 87 91 89 90 95 85 75 75 81 84 85 88 88 89 89 90 89 88 89 89 87 81 77 74 70 72 75 76 76 76 79 83 84 85 86 84 82 80 78 81 82 84 89 90 90 89 89 90 87 87 88 89 88 87 90 92 93 94 93 91 89 86 86 88
77 84 83 83 94 98 99 100 99 99 100 96 95 94 91 91 88 87 81 71 69 71 72 74 76 79 80 71 65 79 86 81 81 80 87 89 88 91 83 74 75 80 83 83 86 86 89 91 89 89 88 90 89 86 81 75 69 69 76 81 82 81 81 83 84 85 86 85 83 83 78 76 86 93 89 90 90 90 89 87 87 85 87 90 92 91 91 90 89 90 90 87 85 84 82 83 85
79 88 85 84 93 95 99 100 99 100 93 89 95 95 93 91 89 85 74 68 73 76 75 74 69 72 76 65 62 75 78 78 81 80 87 92 92 88 76 71 73 78 82 83 85 85 90 91 89 90 89 87 85 83 76 71 70 75 82 84 83 82 83 84 83 83 86 84 82 81 77 78 87 91 87 90 91 89 87 86 85 84 87 90 92 91 91 90 87 89 89 84 82 82 83 86 87
78 89 90 91 96 94 100 101 98 99 91 87 92 93 93 91 90 88 79 72 72 75 74 68 58 67 75 66 70 69 66 73 78 83 88 91 92 83 71 70 73 78 80 81 84 87 91 91 91 91 87 83 80 77 71 72 78 83 85 84 81 82 83 84 83 82 86 84 80 80 80 82 85 87 89 92 93 90 88 87 86 84 85 89 91 90 90 89 86 88 89 85 81 82 84 85 86
80 92 98 96 99 99 100 100 97 98 92 86 90 91 91 90 89 89 89 80 75 77 72 61 52 69 74 66 78 71 65 74 78 87 88 89 90 81 75 74 78 82 79 79 85 90 92 89 89 87 82 79 77 75 74 79 86 87 84 82 81 83 85 82 82 84 86 85 82 84 85 84 84 87 91 94 93 92 92 89 85 84 86 88 90 89 89 88 87 87 87 83 80 83 83 83 85
87 94 100 97 99 101 99 99 95 95 90 85 90 91 90 89 88 88 89 83 77 74 62 52 52 72 77 72 81 72 70 79 82 88 87 88 86 82 80 77 80 84 79 80 88 92 90 85 83 81 78 77 77 79 81 84 87 87 82 81 84 86 86 83 83 87 88 87 87 90 88 84 83 83 86 92 93 92 93 91 85 85 87 88 89 88 87 86 86 85 83 80 80 84 83 81 85
94 94 97 97 99 101 98 96 92 93 89 87 90 90 90 88 88 87 87 85 78 70 55 49 59 72 77 80 81 73 76 80 81 84 84 83 80 80 82 81 81 80 81 85 89 85 83 80 78 79 77 78 80 83 86 87 86 84 82 82 85 85 85 83 86 91 90 88 88 90 88 83 82 81 83 87 89 90 90 89 86 87 89 89 89 87 86 84 84 82 80 80 81 84 84 83 86
97 98 96 97 100 100 98 96 92 93 90 90 91 89 90 87 86 86 87 88 78 67 57 58 68 73 75 81 78 73 77 76 76 78 77 76 76 79 82 86 82 78 83 84 82 79 78 78 78 80 79 80 82 84 86 87 84 81 83 85 85 84 80 81 89 91 86 87 87 86 86 83 82 83 85 85 86 88 86 87 86 87 87 87 87 87 87 85 83 81 80 84 85 85 84 83 85
96 100 97 99 101 98 97 98 94 91 89 92 92 90 90 85 86 86 87 90 81 63 55 62 66 69 79 85 77 71 73 72 72 71 72 73 75 79 84 87 81 75 77 76 78 81 81 81 82 84 83 83 83 84 85 84 83 81 83 85 84 82 80 84 91 89 84 87 86 83 83 83 82 82 84 84 85 86 84 84 84 85 85 85 86 87 87 85 85 83 82 86 87 87 88 85 85
90 96 98 101 100 99 97 96 94 91 93 94 92 92 89 85 86 85 87 88 85 71 55 58 59 65 81 84 74 67 68 68 67 69 70 71 75 80 86 86 76 71 73 76 83 86 86 87 87 86 85 85 83 83 85 84 84 82 83 84 83 81 84 88 88 86 85 85 84 82 81 82 82 80 83 85 85 85 85 85 84 85 86 84 83 86 88 87 87 86 85 85 84 87 90 87 86
80 84 91 97 99 101 96 94 94 94 98 95 92 91 86 87 87 86 88 84 87 80 55 51 57 68 81 83 78 68 63 64 65 67 68 70 76 81 85 83 76 76 81 83 87 89 90 89 87 87 86 86 85 85 85 84 83 83 82 82 81 81 85 86 85 85 86 83 82 80 80 82 80 79 83 87 87 87 88 87 85 83 83 83 82 87 91 87 85 83 81 82 82 87 87 84 86
69 71 75 92 101 97 90 91 91 94 97 91 90 89 86 91 89 86 89 85 87 78 55 48 55 69 78 81 82 67 60 62 63 65 67 72 78 82 84 83 85 88 89 89 90 90 89 88 88 88 86 86 88 87 85 84 84 83 81 78 78 82 84 85 85 86 87 84 82 81 83 84 82 81 83 85 86 86 86 86 85 81 78 81 82 84 88 85 79 73 70 76 82 88 88 85 90
57 57 66 81 90 90 85 83 84 93 96 90 89 86 88 92 86 85 86 86 85 76 67 57 51 62 69 69 69 60 58 62 61 64 68 75 78 82 86 88 93 94 93 93 92 90 87 88 90 89 86 86 86 86 86 85 85 84 79 74 76 83 84 85 87 87 87 86 87 86 86 86 85 84 83 84 85 83 83 85 84 79 74 77 80 81 83 81 74 66 64 74 83 88 91 91 92
50 52 67 72 75 85 81 74 78 91 94 92 90 84 88 91 87 86 84 84 82 79 77 63 49 55 59 59 58 55 59 60 60 65 69 74 79 84 89 92 96 97 97 95 92 89 86 86 88 89 86 84 84 86 85 84 86 83 77 75 79 86 88 87 88 88 87 88 90 88 86 85 84 82 83 87 86 84 85 85 84 80 76 76 77 79 80 78 72 66 65 76 85 89 93 91 88
54 58 69 69 69 74 68 63 67 80 91 92 89 84 87 91 90 89 86 85 82 83 79 61 51 52 54 56 54 55 58 58 61 65 68 73 80 86 89 92 95 98 99 97 94 88 84 85 86 88 86 83 84 86 87 90 90 82 77 80 84 89 92 92 89 89 89 89 88 85 84 84 82 80 81 86 86 88 89 87 85 81 79 78 77 79 78 76 72 66 66 76 83 87 90 88 84
53 58 64 64 62 60 56 59 62 73 88 89 88 86 85 89 89 87 88 89 83 85 79 60 54 55 55 55 54 55 56 57 60 62 68 74 79 83 86 90 93 96 97 98 97 88 82 85 86 86 85 82 83 87 91 95 89 80 79 84 88 88 90 93 90 88 87 86 83 80 82 82 80 79 79 82 84 87 89 87 84 80 78 78 77 79 78 77 74 67 67 74 79 82 84 85 84
45 50 60 58 51 52 59 65 63 70 81 86 90 87 85 88 86 85 87 88 85 83 74 58 58 61 58 56 53 54 55 55 58 61 68 72 75 79 83 88 90 93 94 95 97 89 83 85 86 85 82 80 83 88 92 92 85 80 81 86 90 89 89 92 89 86 84 83 80 79 80 79 79 80 82 83 85 86 86 84 80 77 75 73 72 74 74 74 73 68 67 70 73 75 79 83 84
40 44 53 50 42 50 64 66 62 67 76 85 89 86 87 87 85 86 85 87 90 83 68 55 56 59 57 56 53 52 54 55 56 61 66 68 71 75 80 83 85 88 89 93 97 91 84 83 85 84 81 80 82 86 88 87 83 79 80 86 92 92 91 90 88 86 84 81 80 80 80 80 82 86 87 86 87 84 78 76 72 71 71 68 69 71 71 71 71 70 69 69 69 73 78 83 85
38 40 42 41 39 51 63 58 59 66 73 83 85 84 88 86 84 85 85 90 94 86 69 54 49 52 54 53 52 51 53 54 55 59 63 64 68 72 76 78 80 84 87 92 95 91 84 81 86 86 83 82 81 81 82 82 80 78 80 85 89 90 89 88 87 86 83 79 79 82 83 86 90 90 86 86 85 77 70 69 68 67 67 69 72 74 75 73 74 75 75 73 73 75 78 82 85
39 37 33 35 34 48 58 52 59 67 73 83 81 79 82 85 85 80 83 90 89 85 72 54 45 46 49 49 49 51 53 53 54 58 60 62 66 68 71 73 76 81 86 90 91 92 87 83 90 91 86 83 80 78 78 79 78 77 78 81 84 87 89 88 85 85 82 79 80 83 83 86 88 86 83 82 79 72 68 67 66 66 66 69 74 75 76 75 75 76 76 75 74 76 77 79 82
38 36 30 29 28 42 51 50 61 66 72 77 71 73 80 85 84 79 82 84 80 80 74 57 44 43 46 47 48 49 52 52 53 56 58 61 63 65 67 68 73 79 84 87 89 92 90 88 94 94 88 81 77 77 76 78 77 76 79 78 81 86 87 84 81 83 82 80 82 82 81 80 79 79 80 79 77 75 74 71 70 71 72 73 75 76 77 75 74 74 74 72 71 72 73 75 77
33 34 29 24 23 37 48 54 63 64 67 69 66 73 80 80 77 79 81 78 77 78 76 60 43 44 46 46 47 48 51 50 52 54 56 60 60 62 63 65 72 78 82 85 87 91 91 91 93 92 89 79 73 75 75 76 77 77 79 77 81 85 82 77 77 82 82 83 87 83 79 77 76 78 80 80 81 81 81 80 77 76 78 79 77 78 79 76 74 74 73 70 68 69 69 70 73
27 27 27 23 22 34 49 59 62 61 62 64 69 76 78 74 72 80 79 74 78 77 76 61 42 45 47 45 46 46 49 49 49 53 56 59 59 60 61 63 71 76 79 83 85 88 89 90 90 89 90 81 72 74 75 76 77 78 78 76 80 81 76 76 76 78 81 87 92 87 80 77 77 80 81 82 83 82 82 83 81 77 77 79 79 80 79 77 77 75 72 69 65 65 66 66 69
20 19 21 21 21 30 47 58 59 60 60 62 73 82 80 75 76 85 80 72 77 76 73 61 45 47 46 44 46 45 46 46 46 50 54 58 60 60 59 63 69 73 77 81 83 85 85 85 86 87 88 82 71 72 76 76 77 77 77 78 79 76 72 76 77 75 79 85 88 86 82 78 78 81 80 78 78 80 80 80 81 79 77 79 82 82 79 79 80 75 71 67 62 63 64 65 66
16 15 15 16 15 28 46 55 56 58 62 64 70 79 79 76 78 84 80 75 78 76 73 63 48 46 46 45 46 47 45 43 44 48 53 58 59 60 59 61 66 70 75 78 80 83 83 81 82 85 86 82 71 71 77 76 77 78 80 80 77 72 71 75 77 75 76 78 80 82 82 79 78 81 80 75 74 77 77 77 80 81 81 81 81 81 79 79 79 74 70 67 65 66 65 64 65
15 12 12 14 11 29 51 54 53 56 65 65 63 77 83 78 78 77 74 75 78 78 79 73 56 45 44 47 47 48 46 44 44 45 51 57 58 59 59 60 63 68 71 74 77 80 82 79 80 83 83 81 72 71 80 79 77 81 82 79 72 72 73 74 77 77 73 74 75 77 80 79 78 79 78 75 74 74 74 76 80 82 81 80 80 80 77 77 78 74 70 70 72 71 65 63 63
17 11 11 15 11 25 49 54 51 56 65 57 56 81 90 80 74 69 68 73 77 84 87 85 75 57 44 46 49 49 46 45 45 44 48 54 56 57 58 59 61 64 67 71 75 78 81 79 79 81 82 81 73 72 81 81 79 81 80 75 71 73 74 73 77 77 73 73 74 73 76 77 78 77 75 73 73 74 75 76 80 84 81 78 79 78 77 79 81 77 71 71 76 76 69 66 64
17 14 12 16 15 22 42 55 52 57 65 51 54 83 86 75 69 63 67 72 77 85 88 87 89 75 52 45 50 49 47 46 45 43 46 51 53 55 58 58 59 61 64 68 72 75 77 77 79 79 80 79 73 71 77 82 81 78 75 72 71 71 73 74 75 75 76 76 73 70 71 75 75 75 74 74 75 75 75 76 80 84 81 79 79 79 80 82 83 79 72 71 75 76 73 70 67
17 17 18 17 17 18 29 49 53 57 65 51 52 77 79 69 65 65 71 74 77 84 86 85 88 83 60 46 50 50 47 46 43 43 44 48 51 54 57 58 58 58 60 65 68 69 72 74 76 77 77 75 73 69 70 77 77 73 71 69 69 70 71 73 72 74 79 79 75 71 72 75 75 75 77 77 77 75 74 76 78 81 82 80 78 78 80 80 79 77 72 70 69 68 67 65 65
21 18 22 18 17 16 18 35 47 53 63 58 54 71 77 68 63 71 75 72 78 86 86 82 82 84 68 49 50 50 48 47 44 43 43 45 50 53 55 57 58 57 58 63 65 66 68 71 73 73 73 71 70 67 64 68 68 66 67 66 67 69 67 71 75 78 80 78 76 76 77 78 77 76 77 78 78 76 75 75 77 80 80 77 73 73 76 76 74 73 68 66 65 63 61 59 59
27 21 20 17 15 17 14 18 35 51 62 63 59 64 70 65 64 75 75 70 79 85 83 76 74 80 69 49 49 50 49 49 46 43 41 43 48 51 54 56 57 56 56 60 62 64 66 68 70 70 69 69 67 63 62 64 63 64 65 64 66 67 65 70 76 77 77 76 76 78 80 80 77 75 75 77 77 76 76 76 77 79 78 75 72 72 73 74 72 69 66 64 63 61 60 57 56
26 23 19 19 14 16 17 11 29 55 59 59 59 60 66 63 64 74 73 71 77 79 77 71 66 68 62 50 50 50 49 49 46 43 40 42 47 49 52 54 56 56 55 58 60 61 64 67 69 68 68 68 64 60 62 62 62 63 63 62 63 65 67 70 72 71 72 72 73 75 77 76 75 72 73 75 74 74 75 76 77 77 77 75 74 73 72 73 72 68 65 64 62 60 59 56 54
22 21 17 19 14 14 15 8 28 53 53 54 54 56 65 65 64 70 70 70 71 70 70 66 58 56 55 51 50 49 50 49 44 41 39 41 46 48 51 52 54 54 53 56 59 59 63 66 67 67 67 66 62 61 63 62 62 62 60 60 60 62 68 70 67 66 67 64 64 68 70 70 71 71 74 74 71 72 73 73 74 74 76 75 74 73 71 72 73 69 66 63 61 60 59 56 53
19 20 19 19 17 15 13 8 24 44 48 50 48 52 64 64 62 65 65 66 65 64 66 63 55 52 52 52 51 50 49 46 42 41 39 40 45 48 50 51 51 53 52 54 57 58 62 65 65 64 66 65 61 62 62 61 62 62 60 57 57 59 65 70 67 65 67 64 60 61 64 66 67 69 73 74 71 71 74 74 73 75 77 74 73 72 70 72 72 69 66 63 62 61 59 56 53
19 22 21 20 19 16 13 8 16 34 45 47 45 52 64 62 59 60 61 63 62 62 63 59 54 53 53 52 51 50 49 45 42 41 40 39 44 48 49 51 51 51 52 53 55 57 61 64 63 62 65 64 60 61 61 60 59 60 60 55 55 58 61 67 68 65 67 67 64 60 61 63 63 65 69 72 74 73 74 75 75 78 78 74 73 72 70 71 70 68 66 63 63 62 60 56 53
20 21 20 21 19 14 14 10 9 20 36 47 48 52 60 59 57 57 58 60 58 57 56 54 54 53 53 51 50 51 49 47 44 42 41 39 42 48 49 50 50 50 51 52 53 57 61 63 61 60 63 64 60 61 61 59 57 59 59 54 54 58 60 63 63 64 66 68 67 62 61 62 62 64 65 68 75 75 72 73 75 77 77 75 73 71 72 71 70 68 64 65 64 62 61 55 51
20 21 21 21 16 14 14 11 8 8 22 44 50 52 59 58 57 58 56 55 54 53 52 52 54 53 53 50 48 49 49 48 46 43 42 40 42 47 49 49 50 49 49 51 53 57 61 63 61 59 62 63 61 61 61 60 59 59 57 53 54 58 60 61 61 63 66 67 70 66 62 62 62 64 65 66 73 75 73 72 74 75 75 76 74 71 73 71 70 68 65 67 65 62 61 56 52
20 17 18 18 14 15 13 11 11 6 16 41 51 61 70 63 63 63 56 54 53 52 54 56 57 54 53 51 48 48 48 47 46 44 43 41 42 45 48 48 48 49 49 50 52 57 61 62 60 57 60 63 60 60 61 60 60 60 56 53 56 58 60 66 69 72 73 70 71 68 63 65 63 63 64 66 70 73 74 72 72 74 73 76 75 72 73 71 70 70 67 66 63 61 61 57 54
20 14 15 15 12 13 11 10 11 9 21 39 49 69 79 66 64 65 58 58 56 53 57 61 60 57 56 55 52 49 47 46 45 43 43 42 42 44 46 47 48 48 48 48 50 54 59 62 60 57 59 62 60 59 60 60 60 59 56 54 56 57 60 68 71 72 76 71 67 66 67 68 66 63 64 66 71 73 74 74 72 71 72 75 74 72 75 75 71 70 66 62 61 62 60 56 53
19 16 14 11 12 13 12 11 11 15 24 28 34 60 76 68 64 63 59 61 59 56 59 62 62 61 59 57 55 52 49 47 45 43 43 42 42 44 46 46 47 48 47 47 49 52 57 60 60 57 59 61 60 58 58 58 58 58 57 54 54 55 58 62 61 60 65 64 61 65 68 71 70 66 64 67 74 76 77 78 74 69 69 73 74 72 72 71 69 69 66 61 61 62 60 55 52
18 16 12 12 13 12 12 11 12 16 17 16 21 45 71 74 63 56 58 62 62 60 60 62 64 63 60 57 55 55 51 48 46 43 43 43 42 44 45 45 47 47 46 46 49 52 55 58 59 58 58 60 60 58 57 57 58 58 56 53 53 53 54 56 56 56 58 57 59 64 66 72 74 70 68 71 76 78 79 80 78 73 72 74 77 75 71 68 70 71 68 64 63 62 62 57 53
18 14 11 14 12 12 14 11 13 15 12 17 21 34 60 71 61 53 57 64 64 63 61 61 65 64 61 58 55 55 53 49 47 43 43 43 42 43 44 44 45 46 44 45 49 52 54 56 59 60 59 60 60 58 57 57 57 57 55 52 50 51 52 52 54 57 58 57 61 63 65 72 75 73 75 77 77 79 79 79 79 78 75 75 77 78 75 71 71 71 69 67 64 62 64 63 58
16 12 13 14 11 14 15 12 19 18 13 18 17 23 41 52 60 62 62 66 64 61 59 58 62 63 61 58 54 53 53 50 47 44 42 42 41 43 44 43 44 46 43 44 48 51 55 57 59 61 61 61 61 59 58 58 57 57 55 52 48 49 52 51 52 57 59 60 62 64 66 71 75 76 80 81 79 80 80 79 80 80 78 77 77 78 77 74 72 71 70 69 66 63 65 67 62
13 13 13 13 17 21 24 33 37 24 26 32 17 14 21 27 51 66 61 61 58 55 57 57 59 63 61 57 54 52 52 51 49 46 43 42 41 41 44 44 44 45 43 44 48 50 55 58 58 61 62 61 61 60 59 59 58 57 56 53 48 47 49 50 52 54 59 63 64 64 66 68 72 76 82 82 80 80 81 80 80 80 81 80 78 77 76 74 71 70 71 71 68 65 65 65 61
13 16 14 17 27 30 34 46 40 25 39 47 23 10 10 16 43 60 52 49 48 49 53 54 57 62 61 57 52 50 51 50 49 47 44 43 43 43 44 45 45 46 43 45 48 50 55 59 59 61 64 64 63 62 61 60 58 57 57 55 51 49 47 47 49 51 55 61 62 62 63 65 69 76 82 83 79 80 81 81 81 81 82 81 79 76 74 72 70 71 74 72 67 63 63 62 59
13 19 23 27 32 29 33 41 35 31 40 37 20 12 14 22 37 50 49 44 44 44 46 49 54 58 59 57 53 50 50 49 48 48 46 44 44 45 45 45 47 47 45 45 48 50 54 59 59 61 65 65 64 64 63 62 59 56 57 56 54 53 48 44 45 47 50 55 57 59 61 63 66 73 81 81 78 78 79 80 81 81 80 80 77 74 72 71 70 72 73 71 68 66 63 58 55
14 18 26 33 34 29 32 36 32 33 35 27 16 14 21 23 21 34 45 42 39 40 39 42 49 54 56 55 52 50 49 49 48 47 46 45 44 45 45 45 47 49 47 46 48 50 53 58 60 60 63 65 66 66 64 64 62 56 54 55 54 53 50 45 43 44 45 47 49 49 52 57 61 65 72 73 74 76 77 78 81 80 77 75 74 73 73 72 70 71 70 68 69 68 66 61 56
16 17 22 29 36 34 35 38 34 32 35 30 19 19 27 22 14 25 39 38 36 36 36 39 44 50 53 52 51 50 50 48 47 47 45 45 44 44 45 45 46 49 49 47 48 50 52 56 60 60 62 64 66 68 65 65 65 60 55 53 52 53 51 46 44 43 42 42 43 41 43 50 55 57 59 61 66 74 76 76 80 80 74 71 71 72 73 72 71 70 69 68 68 67 68 68 64
19 17 17 22 29 31 33 40 41 32 29 31 27 25 27 21 15 19 23 29 35 34 34 37 41 48 52 53 53 51 50 48 46 47 46 44 43 43 45 46 46 48 49 48 48 51 53 55 59 59 60 63 64 67 67 64 65 64 60 53 51 53 51 47 45 44 43 42 42 41 40 44 50 53 54 55 59 68 73 75 78 79 74 71 71 70 70 71 71 71 70 71 70 69 70 70 68
22 19 19 20 21 21 25 34 39 33 28 34 32 26 26 22 16 14 10 13 23 32 36 35 37 46 52 55 54 51 51 48 46 46 46 45 44 42 44 45 46 47 49 49 49 51 53 54 58 59 60 62 64 65 66 64 64 65 64 57 51 52 52 49 46 44 43 44 44 43 40 42 46 49 52 53 55 59 66 71 75 76 75 75 73 71 70 69 70 71 70 70 71 71 72 72 69
21 22 20 21 20 21 28 33 35 37 37 38 32 25 30 28 20 23 22 12 12 24 34 34 37 46 52 53 52 51 50 47 46 46 46 45 44 43 43 44 46 46 48 50 49 51 54 54 57 59 60 63 64 65 66 66 64 64 65 62 55 52 51 49 48 45 43 43 46 46 43 43 45 46 48 52 54 55 60 66 70 71 73 77 76 72 71 69 69 71 70 70 70 71 74 73 71
14 17 16 22 26 28 34 33 32 38 35 33 32 28 33 37 33 38 43 34 23 20 26 34 41 47 51 51 50 51 50 47 46 46 46 47 44 42 42 43 45 46 47 49 50 52 54 56 57 58 60 61 63 65 67 67 66 64 64 64 60 54 51 49 49 48 46 43 43 44 44 43 43 45 46 50 54 54 57 63 68 69 70 75 76 74 73 70 69 71 71 72 72 71 73 73 72
13 12 12 20 23 26 33 32 32 39 37 36 38 36 44 51 46 44 48 47 39 25 23 33 41 47 50 48 48 50 49 48 46 44 46 46 45 43 42 42 44 46 46 48 50 52 54 57 58 58 60 61 63 66 68 69 68 66 64 64 63 59 54 51 50 51 51 48 43 40 40 41 43 45 46 49 52 53 56 60 65 68 69 71 73 75 75 73 71 70 69 70 71 71 73 72 72
15 15 17 20 21 23 27 27 28 33 39 43 39 40 51 50 42 44 47 46 42 32 27 31 36 42 46 46 47 48 48 47 46 44 44 45 45 43 41 41 42 45 47 47 49 52 54 57 59 60 60 62 64 65 68 70 70 69 67 65 64 62 58 55 52 51 52 50 46 42 39 38 40 43 45 48 50 50 51 57 63 67 67 68 69 71 75 76 74 73 70 68 68 69 71 71 72
15 19 23 23 23 24 27 33 35 31 36 41 36 41 54 48 41 47 45 42 43 39 37 39 39 39 43 44 43 44 46 45 43 43 43 43 44 44 43 42 42 43 47 48 49 51 53 56 59 61 62 62 64 65 66 70 71 71 70 67 66 64 61 58 55 53 52 50 50 46 42 41 40 40 41 43 45 45 46 52 60 65 66 67 67 67 71 76 77 76 74 71 68 68 69 68 70
Wind_Speed
11 15 15 14 12 9 4 2 1 0 1 2 2 1 2 2 2 3 2 1 1 3 2 2 5 4 2 1 7 6 6 4 2 3 2 6 25 27 20 24 25 24 25 23 21 20 20 20 21 21 21 22 22 22 21 20 20 20 20 18 17 16 16 16 16 16 15 14 14 14 14 14 14 14 14 14 15 15 14 14 15 16 17 18 18 17 16 16 17 17 19 20 19 19 18 17 16
16 17 14 11 9 5 1 1 1 0 1 2 2 2 1 1 2 2 3 4 2 4 3 3 5 1 3 2 8 7 7 5 3 4 4 19 28 20 22 27 27 26 26 24 23 21 21 21 20 21 22 22 22 22 21 21 20 19 19 18 17 16 16 16 15 15 14 13 14 14 13 13 13 14 14 14 14 14 14 14 15 16 17 17 17 17 16 16 17 17 18 19 19 19 18 17 16
17 15 13 8 4 2 1 1 1 1 0 2 2 1 1 1 2 1 3 5 2 8 6 3 5 1 4 2 4 5 3 4 8 8 8 22 21 18 27 28 28 28 26 25 23 22 22 21 20 20 21 21 21 21 21 20 19 18 18 17 17 16 15 15 15 15 14 13 13 13 13 12 13 14 14 14 14 14 14 14 15 16 17 17 17 16 16 16 16 16 17 18 18 17 17 16 16
14 11 10 6 1 1 1 1 1 0 0 2 1 3 2 1 2 1 3 3 3 7 7 5 4 3 4 3 5 6 5 4 7 8 9 17 20 25 30 29 30 27 26 25 23 23 22 21 20 19 20 20 20 21 20 19 18 18 17 17 16 16 15 15 15 15 13 13 13 13 12 11 13 14 14 13 13 13 13 14 14 15 16 16 16 16 16 16 16 16 16 17 17 17 17 16 16
11 8 7 6 1 0 1 0 1 1 2 2 0 2 2 2 2 0 2 1 5 4 5 4 3 3 1 2 3 3 6 6 6 9 13 19 28 32 30 31 31 28 27 25 24 24 21 21 20 20 19 19 20 20 19 18 17 17 16 16 16 16 15 15 15 14 13 12 13 13 12 11 12 13 13 13 12 13 13 14 14 15 15 15 15 15 15 15 15 16 16 17 17 17 17 16 15
10 6 6 6 0 1 1 1 2 2 3 2 1 1 4 3 3 3 2 6 3 1 3 5 6 6 3 3 4 4 7 10 9 12 20 26 32 33 31 33 31 29 28 26 26 23 22 21 21 21 19 19 19 19 18 17 17 16 16 16 15 15 14 14 14 14 13 12 13 13 12 12 13 13 13 13 13 13 14 14 15 15 15 15 14 14 15 15 15 16 16 17 17 16 16 15 15
9 4 2 3 0 1 1 1 3 2 2 2 2 3 5 2 2 3 3 4 2 2 2 4 10 8 5 5 5 7 10 11 11 17 26 32 33 33 32 32 30 30 28 27 26 22 22 21 21 20 19 19 18 18 17 17 16 16 16 16 15 14 14 14 14 14 13 13 13 13 13 13 13 14 13 13 13 14 14 14 15 15 15 15 14 14 15 15 15 16 16 17 17 16 15 15 15
7 2 0 1 1 1 1 2 3 2 1 2 3 5 5 4 4 1 4 1 1 2 5 7 11 10 7 6 5 9 14 13 17 27 34 34 34 33 32 31 30 29 28 28 25 22 22 21 20 19 19 19 18 18 17 16 15 16 16 16 15 14 14 13 13 14 13 13 13 13 13 13 13 14 13 13 13 14 14 14 15 15 15 15 14 15 15 15 15 15 16 17 16 16 16 16 15
5 1 0 1 1 1 2 3 2 1 0 3 4 4 6 3 5 5 2 1 1 1 9 11 8 11 8 9 8 8 15 20 26 32 34 34 33 33 31 30 30 29 29 28 24 23 21 20 20 19 19 18 18 18 17 16 15 16 16 16 15 15 14 13 13 13 13 14 13 13 13 13 13 13 13 13 14 14 14 14 15 15 15 14 14 15 15 15 14 15 16 17 16 15 16 16 16
2 1 1 1 1 2 2 2 1 1 2 4 3 4 4 3 4 5 1 1 1 3 8 10 8 13 10 9 8 7 16 26 31 30 31 32 32 30 29 29 30 31 31 28 25 23 21 20 19 19 19 19 19 18 17 16 16 16 16 16 15 14 14 13 13 13 14 14 14 13 13 13 13 13 13 13 14 14 14 14 15 15 14 14 14 14 15 15 15 15 16 16 15 15 15 15 15
1 1 1 1 0 2 2 3 3 2 2 2 3 3 3 3 4 4 1 2 3 1 11 11 10 14 12 8 5 12 24 28 30 29 30 31 29 29 28 28 30 32 31 29 26 24 22 20 19 19 19 19 19 18 17 16 16 16 16 16 15 14 14 14 13 13 14 15 15 13 13 13 14 14 13 13 15 14 14 14 14 14 14 13 13 14 14 14 14 15 16 15 15 15 15 15 14
1 1 1 1 1 2 1 3 3 3 1 1 2 3 3 4 5 4 2 1 3 5 10 7 8 12 11 7 5 17 26 25 28 31 31 29 28 28 28 29 30 31 30 29 27 25 22 21 20 19 19 19 18 18 17 17 17 16 16 15 15 15 15 14 13 14 15 15 14 14 13 13 14 14 13 14 15 14 14 14 14 13 13 13 13 13 13 14 14 15 16 15 14 14 14 14 13
2 2 2 1 1 1 2 2 2 3 1 1 2 2 4 4 3 3 3 3 4 2 8 7 10 10 9 8 7 15 20 24 29 29 30 29 28 28 28 29 30 30 29 28 27 25 23 21 20 20 19 18 18 18 17 17 17 16 16 15 15 16 15 14 14 15 16 15 15 14 13 12 13 14 14 14 14 14 14 13 13 13 12 12 13 13 13 14 14 14 15 15 15 14 14 14 13
3 2 3 0 1 1 2 1 1 2 1 1 2 2 3 3 3 4 4 4 3 2 7 11 11 11 9 9 8 9 16 26 30 29 30 29 28 28 28 29 29 29 28 28 27 25 24 22 21 20 19 19 18 17 17 16 16 16 15 15 16 16 16 15 15 15 15 15 15 14 13 12 13 13 14 14 13 13 13 13 13 12 12 12 12 13 13 13 13 13 14 15 15 14 14 15 14
5 1 2 1 1 1 2 2 2 2 1 1 3 3 6 6 4 5 3 4 1 5 5 10 8 7 8 11 10 11 20 31 31 30 30 30 30 28 28 28 28 27 27 27 26 25 24 23 22 20 20 20 19 18 17 16 16 16 15 16 17 17 17 16 16 15 15 15 15 14 14 13 13 13 13 13 13 13 13 12 12 12 12 12 12 13 13 13 14 14 15 15 15 14 14 15 14
5 2 0 2 2 2 2 2 2 3 1 4 6 4 7 4 0 3 2 3 2 5 4 6 6 5 9 10 14 21 29 34 31 31 32 31 29 27 27 27 26 25 25 26 25 24 24 24 22 21 21 20 19 18 17 17 16 16 16 17 18 18 17 16 15 15 15 15 14 14 14 14 13 12 13 13 13 13 13 12 12 13 13 13 13 13 13 13 14 15 16 16 15 13 13 14 14
3 3 2 3 3 2 2 3 3 3 4 8 8 5 6 3 3 1 3 2 2 2 4 3 4 8 11 12 21 31 35 34 31 32 31 29 27 25 24 24 25 23 23 24 24 24 24 23 23 22 22 21 20 18 18 17 17 17 18 18 17 17 16 16 15 15 15 14 14 14 14 14 13 13 13 13 13 13 13 12 12 12 13 14 13 13 13 13 14 15 16 16 14 13 12 13 13
4 3 4 5 3 3 4 4 4 4 7 11 10 8 8 6 4 2 3 3 2 4 1 2 6 12 14 19 29 35 35 32 30 32 28 25 25 23 22 22 23 22 23 22 22 23 24 24 23 23 22 21 21 19 19 17 17 18 19 18 17 16 16 16 16 15 15 15 14 15 15 14 14 13 12 12 13 13 12 12 12 12 13 14 14 13 13 13 14 14 16 16 15 13 13 12 12
5 3 4 5 4 4 3 5 5 4 7 12 10 8 6 5 6 4 3 5 5 5 4 7 11 15 17 22 29 32 32 30 30 30 26 24 24 22 22 21 21 22 23 22 22 23 24 25 24 24 23 22 21 20 20 18 18 19 19 18 17 16 17 17 16 16 15 15 15 15 15 14 13 13 12 12 12 12 11 11 12 12 13 13 14 14 13 13 13 14 15 15 15 14 13 11 10
6 4 4 6 6 3 2 6 6 6 9 13 10 6 4 4 5 3 4 6 5 5 6 12 15 19 20 19 25 29 29 28 28 28 26 25 24 24 24 23 23 23 24 24 23 24 25 25 25 24 23 23 22 21 20 19 19 20 19 19 18 18 18 17 16 16 15 15 15 15 15 14 14 13 12 12 12 12 11 11 12 13 13 14 15 15 14 13 13 13 13 13 14 14 12 10 9
3 5 6 6 5 2 3 6 7 9 9 11 11 8 6 3 2 3 8 7 4 5 4 10 19 22 23 20 22 26 26 26 26 26 25 24 24 23 23 24 25 24 25 24 24 25 26 25 25 25 24 23 23 22 21 20 20 20 20 19 19 19 18 18 17 16 16 15 15 14 14 14 14 13 13 13 13 12 12 12 13 13 14 15 15 15 15 14 13 13 12 12 12 13 12 10 8
3 5 9 8 4 3 6 7 9 10 8 11 12 10 7 4 2 3 7 5 3 5 4 7 20 22 23 23 21 23 23 22 23 25 25 24 24 23 23 24 24 25 25 25 25 26 26 26 26 25 24 24 23 22 21 21 21 21 20 20 20 20 19 18 17 16 15 15 15 14 14 14 14 14 14 14 13 13 13 12 12 13 14 14 14 14 13 12 11 10 9 9 10 10 10 9 8
5 6 8 9 6 4 7 9 11 11 10 11 11 9 9 7 5 4 6 4 3 4 5 5 19 22 24 25 21 21 20 19 21 25 25 25 26 25 25 25 25 26 26 26 26 26 26 26 25 24 24 24 23 22 21 22 22 21 21 20 20 20 19 19 18 17 15 15 14 14 15 15 15 15 15 15 14 14 13 12 12 12 12 12 12 11 11 10 9 8 7 7 7 7 8 8 8
7 8 8 9 9 8 11 11 12 12 11 11 11 11 11 8 8 5 6 4 3 4 6 3 18 23 24 22 18 20 20 20 22 25 26 26 27 27 27 26 26 28 27 26 27 26 27 27 26 24 24 24 23 22 22 22 22 22 22 20 19 19 19 19 18 17 16 15 14 14 15 15 15 15 15 15 14 14 13 12 12 11 10 10 9 9 9 8 8 6 5 5 6 6 7 8 8
8 10 10 7 7 11 13 10 12 11 8 10 12 11 10 9 9 7 7 4 3 3 6 4 18 21 20 19 18 19 19 21 23 25 25 25 27 27 26 26 27 28 27 27 27 27 28 28 27 25 24 23 23 23 23 23 23 22 22 20 19 18 19 18 18 17 17 16 15 14 15 14 14 14 14 13 13 12 12 12 11 10 9 9 9 8 7 6 6 5 4 5 6 6 7 9 9
8 11 10 8 6 9 14 11 12 10 8 12 12 9 8 9 10 6 6 6 4 2 4 6 19 19 17 17 16 18 18 20 23 24 25 26 27 27 25 25 28 29 28 28 27 27 28 28 28 27 24 23 23 24 23 24 23 22 22 20 19 18 18 17 17 17 18 17 16 14 14 13 13 13 13 12 12 12 11 11 10 10 9 9 8 7 6 6 6 5 5 5 6 7 7 7 8
7 8 8 10 8 7 16 14 12 9 8 12 12 9 7 4 5 4 4 6 5 2 4 9 17 17 17 16 14 17 18 21 25 25 25 25 26 27 25 25 28 29 29 29 28 28 28 29 30 27 25 24 24 24 24 24 23 23 22 20 18 18 17 17 17 17 18 17 17 16 14 13 12 13 12 12 12 11 11 10 10 10 10 10 9 8 8 8 7 6 5 6 7 7 6 6 7
8 8 6 8 6 5 14 15 13 10 7 10 12 10 5 1 1 4 6 8 6 6 7 10 14 16 16 15 14 14 15 21 24 25 25 24 26 28 26 26 28 29 30 30 29 28 28 30 30 27 25 25 24 25 24 24 24 23 21 19 18 17 17 18 17 17 18 17 16 16 14 13 12 12 12 11 11 11 11 10 10 11 11 10 9 9 9 8 7 6 4 5 6 5 5 5 6
7 6 4 6 4 5 15 16 14 11 7 12 13 8 3 2 3 5 8 9 7 6 4 6 10 14 15 13 12 12 14 20 20 22 26 27 28 30 28 28 30 30 30 30 30 29 28 30 30 27 25 25 25 25 25 24 24 23 21 20 18 18 18 18 18 18 17 16 16 16 16 15 13 12 13 12 11 11 11 11 11 10 10 9 9 8 8 7 7 6 5 5 5 5 6 6 5
7 5 2 3 4 2 13 14 13 10 10 17 13 4 4 4 5 7 9 10 9 7 1 3 2 8 13 12 11 12 15 17 16 19 26 28 29 31 30 29 30 30 29 30 30 30 29 29 29 27 25 26 26 26 26 24 24 23 21 19 18 19 19 18 18 18 17 16 16 16 18 18 15 13 14 13 12 12 11 11 11 10 9 8 8 8 7 8 8 7 7 6 5 5 6 5 5
5 5 3 1 1 2 9 12 12 8 9 17 9 2 6 5 7 11 11 12 13 12 8 5 1 3 9 12 13 13 15 18 18 20 26 30 30 31 32 31 31 30 30 31 31 31 30 28 28 27 26 27 26 27 27 26 24 23 21 20 19 19 20 20 18 18 18 17 16 16 18 18 16 15 14 14 13 12 11 11 11 10 9 8 9 9 8 9 9 8 7 7 6 5 8 7 5
2 2 4 1 2 4 6 12 15 10 8 13 5 2 5 5 9 11 10 12 13 14 11 7 5 5 8 10 13 13 14 19 21 22 26 30 31 32 34 33 33 32 31 32 32 32 30 28 28 27 28 28 26 27 27 26 24 23 22 20 20 20 21 20 18 19 20 18 16 16 17 17 16 15 14 14 13 11 10 10 11 11 9 9 9 10 10 10 9 8 8 8 8 7 8 7 5
3 1 3 2 3 3 2 9 15 14 11 11 7 3 4 5 9 10 10 14 14 14 12 10 10 8 10 11 12 12 13 16 17 20 28 30 31 33 35 35 35 34 33 34 34 33 31 30 29 28 29 28 25 26 26 25 24 23 23 20 20 20 19 19 21 23 21 18 17 16 17 17 15 15 14 14 12 11 10 10 11 11 10 9 9 10 10 10 8 9 10 10 9 8 7 6 6
4 1 3 3 4 4 3 5 10 15 16 13 10 5 5 7 12 13 12 15 15 15 14 13 12 10 13 12 13 13 13 14 13 18 27 30 31 34 35 36 37 36 34 35 36 35 32 32 30 29 30 28 26 26 25 24 23 23 22 19 20 20 18 21 24 23 20 18 18 17 17 17 15 15 14 14 13 11 11 11 11 11 10 9 9 9 9 9 9 9 11 11 10 8 7 7 8
3 3 2 4 3 3 6 3 6 15 16 14 11 6 7 10 14 15 14 13 13 16 17 15 15 16 16 13 14 13 14 15 15 20 27 30 33 34 35 36 37 37 35 35 37 35 33 33 31 31 31 29 27 26 26 24 23 23 21 19 21 20 19 23 23 20 18 18 18 17 17 16 15 14 14 13 12 12 11 11 11 11 10 9 9 10 10 10 9 10 11 11 10 9 8 7 7
4 4 2 3 5 5 7 4 6 16 13 12 13 8 9 13 14 16 15 14 14 16 16 14 15 16 16 14 13 14 14 15 17 23 26 30 34 34 34 36 37 38 36 36 37 34 34 34 32 32 31 29 29 28 27 26 25 25 22 21 23 21 21 23 21 17 16 17 18 17 16 16 16 15 14 13 12 11 11 11 11 10 10 10 10 11 12 11 11 12 12 11 11 10 7 7 6
6 5 5 5 6 7 8 5 8 15 11 11 14 10 12 15 16 17 16 15 15 15 15 14 14 14 14 15 14 15 15 15 20 24 25 29 34 35 35 34 35 37 37 37 36 34 35 35 34 34 32 30 32 31 30 29 28 27 26 24 24 23 22 24 22 18 17 16 17 18 17 17 17 16 14 12 11 11 11 11 11 11 10 10 11 12 12 12 12 12 12 12 11 9 7 6 8
7 6 6 7 7 8 10 9 7 13 11 10 13 11 13 17 16 16 17 17 16 17 17 16 17 15 13 15 16 16 14 13 17 20 23 28 32 34 35 33 34 36 36 38 37 35 37 37 36 36 33 32 34 32 30 31 29 27 28 26 26 23 21 25 25 21 19 17 17 18 18 17 17 17 15 12 11 11 12 12 11 11 11 11 11 12 12 13 13 12 12 12 10 9 6 8 13
7 5 5 7 7 7 10 9 5 9 9 9 14 14 12 15 16 16 18 18 16 18 18 16 17 16 14 15 15 15 15 14 15 16 20 26 30 34 35 33 34 36 37 39 38 36 37 37 37 37 34 33 35 34 31 31 29 28 27 27 26 21 18 24 25 22 20 19 18 18 18 18 18 17 15 13 11 10 11 12 12 11 11 11 12 13 13 13 14 13 13 12 10 9 6 10 15
6 5 5 7 8 6 5 5 2 2 5 11 15 10 6 9 11 12 15 15 13 15 15 13 14 15 16 17 15 16 17 17 16 16 17 23 28 32 33 32 34 35 36 38 38 37 38 38 38 39 37 35 36 35 33 31 29 28 26 26 25 19 18 23 24 23 22 20 19 19 18 18 17 16 15 13 12 10 11 12 12 12 12 12 12 13 13 13 14 13 13 11 10 9 7 10 12
5 7 7 8 10 8 7 6 6 7 2 13 14 4 1 6 10 10 10 10 11 12 12 11 12 13 14 15 15 16 18 17 18 17 16 19 25 29 33 34 34 35 36 37 39 38 38 39 40 40 39 37 36 36 34 31 29 28 26 26 24 17 17 24 25 25 25 23 21 20 19 18 17 16 15 14 13 11 10 12 13 12 12 12 11 12 12 12 13 12 12 11 10 8 7 9 11
5 7 11 13 13 13 10 8 5 6 4 8 12 5 2 6 9 10 8 9 11 11 12 13 13 12 12 13 14 16 17 17 18 18 17 18 22 28 33 35 35 34 36 38 40 40 39 40 40 41 40 38 38 37 35 33 30 30 28 28 26 19 19 26 27 26 27 25 23 21 20 19 17 17 15 15 14 12 11 11 12 11 11 11 11 10 11 11 12 12 12 12 9 8 8 9 11
5 7 10 13 12 11 10 7 3 1 2 5 6 4 3 3 7 10 11 13 13 11 12 14 13 13 13 13 14 15 16 16 17 17 16 17 21 25 29 34 36 35 36 38 40 40 40 40 40 41 41 39 39 37 36 34 32 31 30 31 30 25 23 27 28 27 26 25 22 21 21 20 18 17 16 15 14 14 12 11 10 10 11 11 10 10 11 11 11 11 12 12 9 7 9 10 11
6 7 8 9 8 8 8 6 4 4 3 2 3 4 4 3 9 12 12 13 12 12 13 14 14 14 15 14 14 15 16 17 16 17 17 18 22 25 29 33 36 37 37 37 38 40 41 42 41 41 41 40 40 39 37 36 34 32 32 31 31 29 26 27 27 26 26 24 22 22 21 20 19 18 17 16 16 15 13 12 10 10 11 11 11 10 10 11 11 11 12 11 10 9 9 10 10
7 9 7 7 7 6 3 3 4 3 1 2 2 6 4 4 7 8 11 12 13 15 17 17 17 17 17 16 16 15 16 16 17 18 18 19 23 28 31 34 35 37 39 38 39 40 42 43 42 41 41 41 41 40 39 38 36 33 32 32 32 29 26 24 25 26 26 25 24 22 22 21 20 19 18 17 17 16 14 13 12 11 11 12 12 10 10 11 11 11 12 12 11 11 9 8 8
8 10 9 6 5 4 2 2 2 2 2 3 4 5 4 3 3 6 8 10 13 15 16 18 18 18 17 16 17 16 14 14 16 17 17 20 27 31 33 34 35 37 39 40 39 39 41 43 42 41 41 41 41 42 40 39 37 35 33 33 33 31 28 24 23 26 27 26 25 23 23 23 22 21 20 18 18 17 16 15 14 13 12 12 12 11 11 12 12 12 12 12 12 11 10 9 7
6 6 8 5 4 3 3 3 3 3 1 4 6 5 6 2 4 7 9 14 18 16 14 15 15 16 16 15 16 16 15 13 14 15 15 20 28 31 32 33 34 36 38 38 38 38 41 42 43 42 41 41 41 42 42 40 39 37 35 35 34 33 32 27 25 27 29 28 27 25 24 24 24 23 22 20 20 19 18 17 16 15 13 12 12 12 12 12 12 12 11 11 11 12 12 10 9
2 1 2 2 4 4 4 4 4 2 4 6 4 3 6 4 4 9 14 18 21 17 15 17 18 18 17 16 15 16 16 14 14 14 14 16 21 26 30 31 33 35 36 37 37 38 41 42 43 43 41 41 41 42 42 42 41 39 36 36 36 35 34 31 28 29 32 31 29 27 26 25 25 25 24 22 21 21 20 19 18 17 16 15 13 13 13 12 12 12 12 11 11 11 12 12 11
4 2 2 2 2 3 2 3 2 1 4 7 2 4 3 4 5 12 17 18 17 15 14 17 20 20 17 16 16 15 15 15 15 14 14 14 15 19 26 30 32 35 36 38 38 38 40 41 43 43 41 41 41 42 43 43 42 41 39 38 37 35 35 35 32 30 32 32 30 29 28 28 27 27 27 26 24 23 22 21 20 20 19 18 16 15 14 13 13 12 12 12 11 11 12 13 13
4 4 3 4 3 2 1 2 2 2 5 7 2 4 1 4 4 11 18 18 18 16 14 15 18 20 19 18 17 15 16 16 16 15 15 15 15 19 26 30 31 34 37 39 39 39 39 40 42 43 43 42 42 42 43 43 43 43 42 39 38 36 35 36 36 34 32 32 31 31 30 29 29 28 28 27 25 24 23 22 21 20 20 20 19 17 15 14 15 15 13 12 12 12 12 13 14
2 4 5 4 4 4 3 2 1 2 4 6 4 3 2 3 4 10 17 19 18 15 15 15 15 17 17 16 15 15 16 15 14 15 17 16 17 22 27 30 32 34 38 39 38 39 39 39 42 43 43 43 42 42 42 42 43 44 43 41 39 37 36 36 37 37 34 32 31 31 30 30 30 29 28 26 25 25 24 22 22 20 19 20 20 18 16 15 17 17 15 13 12 12 13 14 14
3 1 6 2 3 5 2 2 4 2 1 4 4 1 4 4 5 7 11 14 15 15 16 15 15 15 14 13 14 15 15 14 14 15 17 18 20 24 27 30 32 33 37 39 39 40 40 40 42 44 44 43 43 42 43 43 43 42 43 43 41 39 36 36 37 37 36 34 33 31 30 30 30 29 28 26 25 25 25 23 23 22 20 20 21 20 18 17 17 18 19 18 15 13 14 14 14
2 2 2 5 4 6 3 2 1 4 2 3 2 1 4 4 6 8 6 10 12 15 17 16 17 16 15 14 15 15 14 15 16 16 17 17 19 24 28 30 33 33 36 39 40 42 43 42 42 43 43 43 44 44 43 44 43 41 42 43 42 40 38 37 38 39 38 36 34 33 32 30 30 29 29 27 25 25 25 24 24 23 22 21 21 21 20 20 18 17 20 21 17 15 15 14 14
3 1 4 4 1 4 3 0 2 4 2 3 2 2 4 5 4 8 11 11 10 13 18 17 16 16 16 16 16 17 17 17 17 16 16 17 18 23 28 31 34 36 37 40 42 43 43 43 44 44 43 43 44 44 44 43 42 41 41 42 43 42 41 39 39 41 40 38 36 34 33 32 31 30 29 28 26 25 25 25 24 24 24 24 23 22 22 23 21 17 18 21 19 17 16 15 14
6 3 4 1 1 0 1 1 2 1 2 3 3 2 1 4 4 9 14 14 12 10 15 15 14 16 17 17 18 19 18 16 16 15 14 14 16 21 27 30 34 37 38 39 41 41 41 42 43 44 44 45 45 44 42 42 42 42 41 42 43 43 43 41 40 41 41 40 38 36 34 33 32 31 30 29 28 26 25 26 26 25 25 25 25 25 24 24 24 22 20 21 21 19 18 18 15
10 7 5 3 1 3 1 2 4 2 3 3 3 2 2 3 5 10 13 15 16 9 12 14 15 17 17 16 16 17 16 15 15 15 15 15 17 23 29 31 33 37 38 38 39 39 40 41 42 43 44 43 43 42 42 42 42 43 42 42 43 43 43 41 40 40 41 41 41 39 37 36 34 33 32 31 30 28 27 28 28 27 27 27 27 27 26 26 26 26 25 24 23 21 20 20 18
8 8 7 7 5 1 1 1 2 3 4 3 1 3 2 4 6 10 13 17 18 9 6 11 14 18 18 17 16 15 15 16 16 16 16 16 17 23 29 31 32 35 36 36 37 38 40 40 40 42 42 41 42 42 42 42 42 42 42 42 43 43 43 42 40 39 41 42 42 41 40 39 37 36 35 33 32 31 30 30 30 30 29 29 29 29 29 28 28 28 28 27 26 25 24 23 21
2 5 7 7 6 4 2 2 2 2 3 4 4 4 2 4 6 9 12 14 15 12 7 2 3 8 12 14 16 18 17 17 17 17 17 16 16 20 26 29 30 31 32 34 35 36 37 38 39 41 41 41 42 43 43 42 41 41 41 42 42 43 43 42 41 40 40 41 42 42 42 40 38 38 38 37 36 35 33 32 32 32 32 31 30 30 30 30 30 30 29 28 27 27 27 26 24
Wind_Direction
143 135 134 134 130 130 138 185 104 55 232 290 259 253 242 214 116 106 97 170 162 221 234 114 119 125 150 113 133 99 53 122 163 144 169 144 142 145 152 153 151 145 139 136 134 133 134 135 135 135 134 132 132 132 131 130 130 129 127 127 128 129 131 128 123 119 119 119 118 116 115 118 120 118 114 110 108 107 107 106 107 107 108 109 114 117 118 117 116 116 117 118 118 118 119 121 123
139 132 134 132 135 142 129 197 103 296 230 308 252 183 261 63 78 117 141 230 201 156 172 117 117 122 262 131 121 100 42 8 72 105 108 130 133 141 154 155 152 146 142 139 138 139 140 139 140 140 138 136 134 132 131 130 130 129 128 129 129 129 132 130 125 122 123 124 123 121 122 125 122 119 115 109 106 107 107 107 107 108 109 109 112 113 113 112 110 111 113 114 115 118 121 122 123
139 132 141 140 148 212 288 196 141 260 255 297 268 67 345 78 106 140 186 236 127 140 149 111 110 51 275 185 103 90 76 37 100 103 117 134 131 146 156 155 152 148 144 143 142 144 143 143 145 143 140 139 136 134 132 132 131 131 131 131 131 132 134 132 128 126 126 126 126 126 130 131 124 121 116 108 106 108 109 108 107 108 108 108 109 108 107 107 106 107 109 111 113 115 117 118 119
140 136 149 153 159 243 225 196 198 249 249 256 307 40 355 36 107 127 241 261 80 133 138 119 107 25 319 136 101 79 110 104 113 115 130 144 143 151 155 155 154 149 147 147 146 146 146 146 147 142 140 141 138 135 134 133 133 133 134 133 133 134 135 133 129 128 128 128 127 129 133 135 128 122 116 109 109 111 111 110 108 108 108 108 108 107 106 106 106 107 107 108 109 109 110 113 114
145 154 179 186 177 127 203 230 193 218 225 220 77 58 45 36 59 252 247 72 63 88 118 146 110 71 342 99 110 104 124 123 126 124 126 141 146 150 154 155 154 151 150 149 148 148 147 148 147 143 142 142 137 135 135 134 135 136 136 133 133 134 135 134 131 130 129 127 125 126 130 133 126 121 119 115 115 115 114 113 111 110 109 109 108 108 108 109 108 107 106 106 106 107 109 111 114
159 172 195 201 213 113 201 253 220 235 230 187 137 109 79 59 21 345 77 92 74 93 150 173 137 125 130 56 61 105 132 127 130 129 128 139 146 151 154 154 154 152 152 150 150 149 147 150 147 144 144 140 135 135 136 136 138 138 136 133 132 133 134 134 134 132 130 126 123 123 125 128 124 122 124 121 120 119 118 116 114 114 113 112 109 109 110 111 111 108 107 106 106 107 108 111 113
169 175 188 198 26 181 227 252 240 265 249 182 130 97 97 135 122 347 358 92 127 195 147 144 133 118 99 89 79 101 120 120 128 135 135 141 146 149 151 151 153 153 152 151 149 148 148 150 147 144 142 139 136 138 139 140 140 138 135 132 134 135 135 135 134 133 129 124 123 123 120 122 123 123 125 124 123 121 119 117 116 116 115 114 113 113 112 113 113 111 109 106 105 105 106 107 108
177 169 96 181 162 227 241 253 244 238 233 125 80 89 134 172 129 79 315 347 125 147 141 143 130 103 86 96 90 104 111 113 127 135 137 141 144 146 148 149 149 151 153 151 149 148 147 147 145 143 142 141 140 142 141 141 140 136 133 133 135 135 135 135 133 131 128 125 124 122 118 119 123 126 127 125 122 120 118 117 117 116 115 116 116 116 115 114 113 112 110 107 106 105 104 106 106
185 182 78 165 184 249 236 252 249 199 55 76 84 124 155 158 108 127 263 314 45 205 154 154 129 103 98 91 91 100 105 117 127 133 138 141 143 144 146 147 147 149 152 150 148 147 146 146 146 145 144 144 144 143 141 141 139 135 134 135 135 134 134 134 133 130 128 128 127 124 121 120 122 124 123 122 120 119 117 115 114 114 115 116 118 118 118 116 113 112 110 107 106 105 105 106 106
176 224 208 134 164 278 275 286 305 95 63 73 121 165 144 129 123 130 234 276 303 284 131 123 104 106 109 97 97 108 118 128 129 132 138 140 142 142 144 147 149 150 151 149 148 148 147 149 149 148 147 146 146 143 141 141 138 134 134 137 135 133 133 134 134 131 131 130 128 128 125 122 122 121 119 119 116 116 115 113 113 115 117 118 120 121 120 118 116 114 109 108 108 106 106 106 107
146 246 221 87 81 285 306 316 332 50 117 120 131 136 106 129 125 108 133 275 311 81 115 102 99 108 104 93 90 121 128 133 133 136 140 140 142 142 144 147 151 151 150 149 148 148 149 151 151 150 150 148 145 141 142 141 137 136 136 136 134 134 135 136 135 133 132 130 129 131 128 124 122 121 120 118 114 114 115 114 115 116 118 121 124 124 123 121 119 115 111 110 110 108 107 107 106
212 221 150 110 228 236 249 299 334 17 129 163 113 111 124 130 113 126 151 335 356 121 128 113 121 116 104 101 106 128 132 137 138 140 141 141 142 143 145 148 152 152 150 149 147 149 150 152 152 151 149 146 144 142 142 139 137 138 138 137 136 136 136 136 136 135 132 129 131 131 128 125 122 123 123 118 115 116 117 115 116 117 119 123 129 129 126 121 118 117 114 113 112 110 107 107 105
225 197 117 98 216 215 263 284 354 8 317 46 55 102 128 120 113 135 108 58 3 119 135 128 133 118 104 112 124 136 139 144 144 142 142 141 141 144 146 148 151 150 149 149 148 150 152 153 152 150 148 145 144 143 141 139 138 140 141 140 138 138 137 137 136 135 131 130 132 131 129 125 123 124 122 119 117 118 116 115 116 117 119 124 130 128 123 120 119 119 118 116 114 110 108 109 107
209 198 135 278 262 225 263 209 51 35 304 48 71 83 87 51 44 64 72 79 355 279 127 123 128 107 112 132 136 148 149 150 148 144 143 140 142 145 146 147 149 149 150 151 151 152 153 153 152 149 148 146 145 144 141 140 141 142 143 141 140 139 138 137 135 133 132 131 132 132 131 127 125 124 123 122 121 120 117 117 117 118 121 124 127 126 123 121 121 120 118 117 113 110 109 111 107
211 230 146 273 310 241 241 178 122 106 240 127 99 76 68 36 32 66 55 72 339 260 112 124 137 106 149 161 150 160 153 152 150 145 142 139 142 143 144 145 148 150 151 153 153 154 154 153 152 151 150 148 147 145 142 142 144 144 142 142 141 140 139 137 136 134 132 132 132 133 133 129 127 126 126 126 124 123 120 119 118 117 118 120 123 124 124 123 122 120 118 115 111 108 107 107 106
217 254 263 287 267 247 240 191 141 134 184 116 103 88 80 55 69 115 83 63 282 289 32 155 176 133 166 162 148 153 150 152 149 142 138 136 138 139 141 144 146 149 152 154 155 155 156 155 155 154 152 151 149 146 144 144 145 144 143 143 143 142 140 138 137 135 135 134 135 134 132 129 128 129 129 127 125 124 122 121 119 115 113 115 119 122 123 123 123 122 119 116 111 109 105 104 106
233 238 252 273 247 240 225 193 176 144 135 119 116 125 119 146 208 127 103 98 296 358 27 238 173 129 148 144 144 146 148 152 146 137 135 135 135 136 140 143 144 148 153 155 156 157 158 158 157 156 154 153 151 148 145 145 144 146 145 144 146 144 140 138 137 136 135 135 135 134 130 129 130 132 130 128 126 125 124 121 120 117 113 114 117 120 123 124 124 124 123 120 116 112 109 107 106
229 215 219 254 236 223 220 186 165 139 135 130 139 161 156 164 168 132 143 122 87 108 99 244 124 123 133 136 141 142 147 150 142 137 138 138 138 139 143 146 148 150 154 156 158 161 162 162 160 158 156 153 153 150 147 147 147 149 148 148 149 145 140 138 138 138 137 136 138 136 133 132 133 131 129 129 128 127 126 125 124 120 116 116 118 120 123 124 124 126 127 125 124 120 115 111 107
217 204 209 239 224 222 208 163 144 139 143 132 141 165 153 145 140 148 168 126 123 137 177 177 134 125 133 141 143 144 150 148 142 143 143 144 145 145 147 151 153 153 156 158 162 167 166 164 163 160 157 155 155 152 150 152 153 152 151 152 150 145 141 140 142 143 141 140 140 138 135 135 135 132 129 128 125 125 127 127 125 121 119 120 121 122 122 124 125 127 129 129 128 126 121 113 107
213 199 223 241 229 244 145 152 137 138 147 130 133 150 132 138 136 146 145 128 161 183 184 170 144 138 147 151 148 149 152 149 147 147 147 148 149 150 152 155 156 158 160 161 166 170 169 167 165 162 158 157 157 154 155 156 156 155 154 153 149 145 144 145 147 146 144 142 140 140 138 138 137 134 132 131 128 128 131 130 128 125 124 124 125 125 125 125 127 128 129 132 132 131 128 120 113
210 196 226 238 219 216 163 156 125 136 147 126 131 139 127 140 136 152 138 129 201 225 217 166 149 149 153 155 154 153 153 152 150 148 149 150 150 154 156 157 159 161 162 163 167 170 171 170 166 163 162 160 160 159 158 158 159 157 156 155 151 149 149 151 150 148 147 145 143 143 142 142 143 143 143 140 137 139 141 138 133 129 128 129 127 125 124 124 124 125 126 131 134 136 135 129 126
253 231 233 238 214 159 170 159 128 142 141 120 133 138 127 129 146 158 134 124 213 226 279 169 154 154 155 157 157 155 154 154 151 150 153 152 152 155 156 158 159 161 162 164 167 170 173 171 167 166 165 165 164 162 160 161 162 160 158 158 155 154 155 155 155 153 151 149 147 149 150 150 151 152 151 147 144 145 144 142 136 132 132 131 130 126 124 124 123 124 127 135 141 143 143 140 139
247 257 244 236 224 172 166 157 137 144 144 138 143 137 130 138 146 149 144 155 212 223 292 182 158 155 155 157 157 156 156 156 154 155 156 154 154 156 158 160 161 161 163 166 167 171 173 171 170 170 169 169 167 164 163 163 164 162 161 162 162 160 161 163 161 159 156 154 154 157 158 156 156 156 156 153 149 147 145 143 139 135 135 133 131 131 130 130 128 128 132 143 149 153 154 152 154
238 255 255 233 213 186 173 159 145 153 156 147 143 134 138 149 141 150 181 184 208 231 291 208 159 155 156 159 158 156 157 158 157 158 158 156 157 158 160 161 162 162 163 166 168 171 174 172 172 173 173 173 169 167 167 167 167 165 165 167 168 167 167 168 165 163 161 160 160 162 164 160 158 158 159 157 153 152 151 148 146 143 141 138 137 136 135 132 129 125 126 145 155 160 164 164 168
241 247 256 246 213 178 165 151 145 156 150 135 138 139 148 153 139 156 194 186 179 220 294 211 158 157 160 161 158 152 156 160 158 159 159 159 158 158 160 161 161 163 164 166 169 172 174 173 173 174 176 175 171 170 170 170 170 169 171 173 173 173 172 170 168 168 166 164 165 168 170 167 161 162 164 162 160 160 159 156 156 154 149 144 142 140 140 134 122 111 114 145 155 154 166 170 174
240 241 248 258 249 160 151 149 149 154 148 140 138 142 154 151 136 146 194 183 156 176 287 190 160 160 164 163 159 154 158 161 160 161 160 161 160 160 162 161 162 165 167 168 169 173 175 176 175 175 178 177 173 173 173 173 174 174 177 176 175 178 176 174 173 173 172 171 173 177 178 175 168 167 169 169 168 167 166 165 162 160 157 150 144 138 142 136 121 116 115 132 145 144 155 162 166
259 258 255 256 260 160 149 148 147 150 152 146 136 143 154 144 133 141 191 165 130 164 227 179 162 164 166 164 161 158 160 162 162 161 159 162 162 164 165 162 164 167 167 168 170 172 176 177 176 176 180 181 177 177 177 177 178 178 180 179 179 179 177 179 179 177 178 177 177 182 184 182 178 177 176 172 172 171 169 169 165 161 159 156 150 142 140 138 135 135 120 121 135 140 151 159 158
270 269 276 263 267 144 147 142 145 152 148 143 128 124 127 49 166 160 161 142 134 181 194 178 168 167 167 164 161 161 163 163 161 159 161 165 166 168 169 164 164 167 168 170 171 172 176 178 177 177 181 182 181 180 179 180 180 180 182 182 182 181 180 182 182 182 183 181 181 186 190 191 189 189 185 177 174 174 169 167 166 163 161 158 152 148 147 145 147 144 129 126 134 142 163 175 170
288 266 261 273 317 120 150 147 155 160 136 140 124 103 144 201 172 148 143 144 154 164 174 193 177 168 168 163 158 163 168 168 165 161 163 166 168 170 171 168 165 166 170 172 172 173 176 178 178 179 182 185 184 180 180 182 182 183 184 184 183 182 183 185 184 185 184 183 188 191 195 199 198 193 187 181 178 177 174 170 170 169 167 160 152 151 150 148 152 152 145 151 154 158 167 168 174
313 294 228 259 349 130 163 154 160 157 144 155 139 100 210 202 161 149 145 154 148 124 138 257 203 172 173 164 160 167 170 174 175 166 163 166 169 170 170 170 167 166 169 171 173 175 176 177 178 181 184 187 186 182 182 184 185 186 187 187 185 183 185 186 185 187 184 183 190 192 195 200 200 193 185 180 179 179 179 178 177 179 176 167 160 157 151 151 158 160 159 169 170 166 174 179 190
312 315 295 189 38 229 172 157 157 144 160 171 145 97 206 197 167 156 152 161 147 143 183 215 186 194 185 168 165 170 172 179 182 172 165 165 168 168 169 170 169 168 168 171 175 177 176 176 179 182 186 188 188 186 184 185 189 190 188 186 185 184 183 183 187 188 181 177 183 187 191 195 195 192 187 181 178 180 183 182 184 187 180 172 169 164 160 161 163 165 168 182 186 174 178 189 206
313 321 308 296 171 248 176 162 165 151 174 189 159 103 193 193 167 151 150 158 148 156 181 187 175 207 209 180 168 172 175 180 184 176 167 166 169 168 169 170 170 170 170 173 176 176 175 177 179 183 187 189 190 190 187 187 191 189 184 182 184 185 183 188 194 188 178 174 179 184 186 188 190 191 189 184 181 183 184 183 186 189 183 178 177 174 173 175 173 172 176 186 187 179 173 174 194
334 163 259 269 175 254 210 168 175 157 158 202 221 152 157 185 165 147 151 160 153 160 175 184 182 201 217 191 172 175 175 180 185 178 170 168 170 169 169 171 172 173 172 174 176 175 175 178 180 184 187 188 189 188 187 187 188 186 180 181 188 188 187 193 189 181 178 179 180 181 183 184 185 187 189 190 189 189 188 185 184 186 187 184 182 178 178 182 180 177 179 182 182 179 172 158 163
313 236 231 263 188 216 235 188 182 161 156 192 218 181 164 178 160 151 161 165 158 163 176 186 182 198 216 193 175 179 176 181 188 180 173 170 171 170 170 172 173 174 174 175 177 176 177 178 180 183 184 187 187 183 181 180 182 183 181 184 191 189 188 187 181 181 185 187 184 181 183 183 181 183 187 191 192 190 189 187 186 188 188 185 179 174 175 179 178 178 179 179 180 177 174 163 153
244 247 239 289 268 231 232 229 174 166 166 182 191 183 176 168 158 159 167 165 164 171 177 185 187 195 205 190 177 180 179 183 187 183 176 171 172 171 170 173 173 174 175 175 177 177 178 178 178 182 184 185 186 182 176 175 179 181 181 186 188 183 183 183 182 189 193 192 190 185 187 187 184 183 183 188 192 191 189 187 186 186 181 178 176 171 171 172 168 170 173 175 179 178 175 169 158
230 253 243 258 275 261 240 245 178 171 173 183 183 176 170 167 166 168 170 169 173 178 178 186 191 189 189 185 181 180 180 185 186 185 177 170 172 172 170 172 173 174 175 175 177 178 177 177 177 182 185 184 183 182 179 179 182 183 183 187 190 184 184 186 187 193 192 191 192 190 190 190 187 184 181 186 192 190 186 184 181 177 172 174 176 171 169 168 163 163 167 171 176 178 172 171 184
268 285 288 271 270 270 257 252 186 171 175 197 188 168 167 173 174 173 172 173 175 179 185 192 191 182 179 182 183 181 181 182 183 185 179 171 172 174 172 171 172 174 174 174 176 178 177 178 178 181 186 184 180 181 181 183 185 185 186 188 191 190 190 191 190 193 190 185 188 190 190 191 190 187 184 182 185 187 184 180 177 172 169 171 172 171 171 170 167 165 166 170 174 176 168 160 181
261 268 277 281 269 268 266 262 209 178 183 201 183 167 176 178 177 176 172 175 183 185 188 191 187 181 178 179 181 182 181 179 182 184 180 172 170 173 173 172 172 173 174 175 176 178 178 179 180 181 185 184 182 182 182 186 189 188 187 187 188 192 194 194 193 194 193 188 187 188 188 191 193 192 190 182 181 187 185 180 177 173 168 166 167 169 172 173 172 170 168 170 174 175 165 151 158
244 247 257 270 260 274 274 263 228 187 188 194 184 178 184 181 178 180 177 180 188 190 190 188 181 179 180 179 178 178 179 180 182 182 180 173 169 171 173 174 175 174 175 175 176 178 178 179 181 181 185 185 184 185 184 189 192 189 187 186 187 193 194 194 197 197 196 195 191 189 190 192 193 194 194 189 184 184 183 180 176 172 165 163 168 170 171 173 175 175 171 172 176 179 170 159 161
233 231 242 256 252 266 270 263 302 258 197 184 184 179 168 172 179 187 187 186 186 189 193 189 182 180 181 181 177 175 178 180 182 181 180 173 168 170 173 175 176 175 175 175 175 176 178 180 181 181 184 186 185 185 186 190 190 187 187 187 190 193 187 187 193 197 198 198 195 194 194 194 194 193 193 191 187 180 177 178 175 170 164 165 171 173 174 173 175 177 177 178 181 186 182 172 177
236 224 227 247 255 245 239 267 307 324 261 171 161 118 94 175 186 194 191 189 190 188 187 190 193 187 180 181 179 177 178 179 181 181 181 176 169 171 174 175 176 176 176 176 176 176 179 181 181 182 183 185 186 186 188 189 188 186 186 189 193 193 182 180 183 189 194 197 196 197 196 196 196 193 193 193 190 183 176 176 176 171 168 170 173 177 179 176 176 178 181 184 185 189 193 190 193
246 234 224 231 248 248 248 269 293 349 4 154 139 108 230 205 194 194 184 189 196 191 186 188 194 192 183 181 182 182 180 179 182 182 181 180 173 171 174 175 177 178 178 178 177 177 180 181 182 182 183 185 187 188 189 189 187 185 186 189 193 191 181 180 184 187 191 195 197 197 196 197 197 195 195 194 192 191 184 180 181 176 172 173 173 177 183 184 180 178 182 188 187 190 200 198 196
247 238 223 228 242 251 258 271 262 358 87 154 147 145 187 214 211 203 189 190 195 192 192 190 191 193 190 185 183 182 181 180 182 182 181 181 176 172 174 177 178 180 180 178 178 178 180 182 182 182 183 185 187 188 190 190 188 187 189 192 195 194 185 184 192 195 195 196 197 197 195 196 198 199 197 196 195 194 192 190 188 184 178 174 173 177 184 189 184 179 184 191 194 201 206 202 199
242 242 229 242 254 256 260 269 252 217 167 153 169 146 128 200 217 206 188 187 194 196 198 195 194 196 194 191 187 183 181 180 182 182 180 181 179 175 176 179 180 180 179 178 177 179 181 182 183 183 184 185 187 189 190 190 188 188 192 196 198 199 194 187 192 198 199 198 198 197 195 195 197 200 200 200 198 196 197 198 196 194 189 182 182 183 185 190 186 182 186 192 200 207 206 205 206
243 253 243 249 256 258 271 291 276 233 181 303 202 133 124 230 222 191 179 186 197 202 202 200 198 197 195 194 191 186 183 181 182 183 182 181 180 178 177 179 180 180 179 179 179 179 181 182 183 184 185 186 187 189 189 191 191 189 192 197 198 201 200 193 190 194 197 198 198 198 196 195 196 198 200 202 202 201 201 202 201 200 198 193 192 190 190 195 193 190 191 193 201 205 201 201 207
235 246 249 258 260 267 68 75 344 23 134 231 217 142 125 247 234 163 173 198 206 206 204 203 201 197 196 196 192 188 185 184 185 184 183 182 180 179 177 178 180 180 181 181 180 180 180 181 183 184 186 187 187 189 190 191 192 191 193 197 198 198 201 198 192 193 196 197 198 198 198 198 198 197 198 203 207 208 206 206 205 203 201 202 201 196 195 200 201 200 198 197 201 206 204 201 200
229 243 252 277 312 340 42 70 61 50 290 238 222 182 138 179 233 179 183 204 206 205 201 202 203 200 199 198 194 190 187 186 187 185 184 183 181 178 176 177 179 180 181 181 180 180 180 181 183 185 187 188 189 189 190 192 193 194 196 197 198 198 200 199 194 193 195 196 197 199 199 200 200 199 199 204 208 211 212 211 209 205 203 205 207 204 200 202 206 206 203 201 205 209 208 208 205
150 28 262 272 315 352 13 356 39 85 269 252 220 161 136 160 227 201 203 211 207 203 196 195 199 200 200 199 194 191 189 187 186 186 184 180 180 179 177 178 179 179 181 181 181 181 181 183 184 185 188 189 190 190 191 193 194 196 198 199 200 201 201 201 198 194 194 195 198 200 201 201 201 200 201 205 208 209 212 214 212 208 205 206 208 208 203 202 207 208 208 207 207 209 212 216 214
125 96 68 101 310 345 353 315 314 190 253 250 209 87 133 208 223 204 208 217 216 210 201 196 197 197 197 199 196 192 189 188 187 187 185 180 179 181 180 179 178 178 181 182 182 182 182 184 184 185 188 190 191 191 192 193 195 197 200 201 203 203 204 204 202 198 196 197 199 200 202 202 201 200 201 205 207 208 210 212 211 209 207 206 205 206 206 204 207 210 211 210 207 207 213 219 222
148 170 124 126 126 75 250 272 292 263 272 269 283 72 168 270 257 207 205 214 216 213 209 202 199 196 194 195 194 192 191 189 188 187 187 185 181 182 183 181 179 179 182 183 183 183 183 184 185 186 189 190 191 192 193 194 196 198 200 202 204 204 205 206 205 202 200 201 202 203 204 204 202 201 202 205 207 208 211 211 210 209 208 206 203 204 210 214 213 212 210 208 209 211 213 217 222
192 181 132 133 151 141 190 199 181 248 282 301 339 51 191 232 245 206 200 212 214 207 208 205 201 199 194 192 191 191 194 191 190 189 188 188 184 182 183 182 181 180 182 183 184 184 184 185 187 188 189 191 192 193 195 196 197 198 200 203 205 205 205 206 207 205 203 204 206 207 207 207 206 204 204 207 208 209 212 213 212 212 208 204 202 203 212 219 216 215 213 209 211 216 217 217 219
272 181 112 142 192 152 156 186 177 170 334 316 330 293 218 218 263 241 203 212 215 208 208 201 200 198 187 189 192 191 194 192 192 192 190 191 187 184 184 184 184 182 182 184 185 185 186 187 188 189 190 191 193 194 196 198 199 200 201 203 205 206 206 206 207 206 205 205 208 210 210 209 210 209 207 209 210 211 213 214 215 216 209 201 201 202 210 216 215 217 218 214 212 214 214 215 217
276 51 140 223 199 132 117 268 244 84 85 283 283 272 296 304 300 298 263 230 218 210 212 204 198 192 181 188 194 190 192 193 194 194 191 190 188 186 186 185 185 184 183 186 187 187 188 188 189 190 191 192 193 196 198 200 201 201 202 203 205 206 206 206 206 206 206 207 208 211 213 212 212 212 211 211 212 214 216 216 218 219 212 204 204 205 207 212 216 217 215 213 212 210 211 214 215
54 2 250 258 346 92 107 245 359 59 114 277 283 187 304 322 297 319 321 289 248 214 212 208 195 184 183 192 192 191 193 192 194 195 192 191 188 188 188 187 188 187 186 188 189 189 190 190 191 191 191 193 194 196 199 200 201 203 204 204 205 207 207 207 206 206 206 207 208 212 214 215 214 215 215 214 214 216 217 219 220 220 215 209 209 210 208 211 215 216 211 210 212 213 214 216 216
34 317 282 359 47 132 49 132 159 106 144 268 288 178 356 325 292 328 337 318 295 245 215 206 189 182 189 194 192 192 191 189 192 194 193 194 191 189 189 189 190 189 189 189 189 190 191 192 193 193 194 195 196 197 198 201 202 204 205 206 206 207 208 208 207 206 207 208 209 211 213 215 216 216 217 216 216 217 219 220 221 222 218 213 212 213 211 211 214 216 213 209 212 215 216 217 219
5 359 360 10 195 186 184 168 168 147 158 225 292 42 20 307 304 329 348 347 332 293 219 204 188 184 191 193 191 191 187 187 192 193 193 193 193 192 191 190 190 191 191 190 189 190 191 193 194 194 196 196 196 197 198 201 203 204 206 207 208 208 209 209 209 207 208 209 211 212 213 215 217 217 218 218 219 220 221 222 223 223 222 218 215 214 215 215 216 219 218 215 213 214 215 217 220
351 6 11 356 340 334 191 196 170 136 149 197 142 84 288 302 333 339 360 4 347 329 217 211 199 189 192 190 186 186 186 189 190 191 194 194 193 194 194 192 191 191 192 190 190 191 192 193 194 195 196 196 196 198 199 201 203 205 206 207 208 209 209 210 211 211 211 212 214 215 216 217 217 218 219 219 220 223 225 225 225 224 224 222 220 217 217 218 220 221 222 222 219 217 218 219 220
51 38 16 6 1 1 349 292 289 109 136 198 161 135 276 333 353 339 5 13 352 0 35 11 231 196 197 194 188 184 184 189 191 192 194 193 192 194 193 193 192 191 192 191 191 192 193 194 195 196 196 196 197 198 200 202 203 205 207 209 209 209 209 210 211 212 214 215 215 217 218 218 217 219 220 220 222 224 226 227 226 226 225 224 224 222 219 220 222 223 224 225 223 221 221 222 222